Showing default

SPARK 1, 41900

Orbit data source: Space-Track

SPARK 1, 41900 is a payload satellite owned by SECM (CN) in SSO that was launched on Wed, 21 Dec 2016 UTC via a CHANG ZHENG 2D launch vehicle from the Jiuquan Satellite Launch Center, China (JSC). Payload-class satellites include a variety of spacecraft equipped with specific instruments for various scientific and technological missions. These include communications satellites like Starlink; space stations such as the ISS; scientific satellites like the Hubble; Earth observation satellites from companies like Planet Labs, Umbra, and HawkEye 360; GPS; miniature CubeSats for education and research; and military/defense satellites.

Loading next visibility...
Identifier
41900, 2016-081C
Orbit
SSO
Country
Flag of CNCN / PRC
Related business
Manufacturer
SECM
Mission
Operational Civil Imaging
Bus & Motor
SPARK, Unknown motor
Mass
43 kg wet, 43 kg dry
Launch date (UTC)
2016-12-21 (10 years ago)
Launch vehicle
CHANG ZHENG 2D
Launch site
Jiuquan Satellite Launch Center, China (JSC)
Object type
Payload
Rocket body
Debris
Shape & HBR
Box + 2 Pan, 0.5 m
Radar Cross Section
0.388 m², Medium (>0.1 m² and < 1m²)

Expand to show TLE details & history
Last TLE update: 2 days ago

TLE from 2 days ago
0 SPARK 1
1 41900U 16081C   26171.43490597  .00000392  00000-0  92530-4 0  9995
2 41900  98.5485 166.0148 0022712 312.3079  47.6195 14.59792855504747
Epoch: 2026-06-20T10:26Z
TLE epoch observation values (Epoch: 2026-06-20T10:26:15.875Z)
Latitude
-0.00002°
Longitude
100.79908°
Altitude
686.008 km
Speed
7.519 km/s
True Right ascension
11h 04m 03s
True Declination
0° 00' 00"
Sunlit
Object was in daylight at epoch
Visualization orbit readout
Latitude
Unknown
Longitude
Unknown
Altitude
Unknown
Speed
Unknown
Apparent Right ascension
Unknown
Apparent Declination
Unknown
Sunlit
N/A
Visualization observer readout
Local Sidereal Time
21:40:40
Azimuth
Unknown
Elevation
Unknown
Doppler factor
Unknown
Orbital elements
Apogee altitude
706.996 km
Perigee altitude
674.885 km
Semi-major axis
7,069.078 km
Eccentricity
0.00227
Inclination
98.5485°
RAAN
166.0148°
Arg. of periapsis
312.3079°
True anomaly
47.81212°
Mean anomaly
47.6195°
Eccentric anomaly
47.71577°
Mean motion
3.65173 °/min
Orbital period
98.58 mins
BSTAR
0.00009253
Loading maneuver chart data...
Computing Atmospheric mass density...
Loading historical data...
Loading historical data...
Loading historical data...
Loading historical data...
Loading historical data...
Loading historical data...
Loading historical data...
Other satellites on launch #81 in the year 2016 (2016-12-21 UTC)

Documentation

Showing up to 5 results
|